Tracking 20748 objects as of 4-Jun-2020
HD Live streaming from Space Station
objects crossing your sky now
Track the most recent launched group of Starlink satellites

COSMOS 1503

Track COSMOS 1503 now!
10-day predictions
COSMOS 1503 is classified as:


NORAD ID: 14401
Int'l Code: 1983-103A
Perigee: 782.7 km
Apogee: 800.2 km
Inclination: 74.0 °
Period: 100.5 minutes
Semi major axis: 7162 km
RCS: 2.2071 m2 (large)
Launch date: October 12, 1983
Source: Commonwealth of Independent States (former USSR) (CIS)
Launch site: PLESETSK MISSILE AND SPACE COMPLEX (PKMTR)
aabbcc
Your satellite tracking list
Your tracking list is empty




NASA's NSSDC Master Catalog

Two Line Element Set (TLE):
1 14401U 83103A   20156.43865175 +.00000038 +00000-0 +23577-4 0  9997
2 14401 074.0426 174.5631 0012259 117.2567 242.9834 14.32217421913967
Source of the keplerian elements: AFSPC